Weather reports worldwide

Advertisment
Moskva, Russia (27612): temperature & dewpoint: 07.12.2017 16:00:00 - 13.12.2017 16:00:00 (MSK)Moskva, Russia (27612): wind speed: 07.12.2017 16:00:00 - 13.12.2017 16:00:00 (MSK)Moskva, Russia (27612): wind direction: 07.12.2017 16:00:00 - 13.12.2017 16:00:00 (MSK)Moskva, Russia (27612): reduced air pressure: 07.12.2017 16:00:00 - 13.12.2017 16:00:00 (MSK)Moskva, Russia (27612): visibility: 07.12.2017 16:00:00 - 13.12.2017 16:00:00 (MSK)
Date & Time tt [°C] td [°C] ff [km/h] ff [kn] dd ppp [hPa] vv [km]
13.12.2017 16:00:00 - - - - - - -
13.12.2017 15:00:00 3,5 1,4 4 2 WSW 1010,5 4,0
13.12.2017 14:00:00 - - - - - - -
13.12.2017 13:00:00 - - - - - - -
13.12.2017 12:00:00 3,4 2,4 4 2 S 1009,9 4,0
13.12.2017 11:00:00 - - - - - - -
13.12.2017 10:00:00 - - - - - - -
13.12.2017 09:00:00 3,1 2,3 4 2 S 1009,1 4,0
13.12.2017 08:00:00 - - - - - - -
13.12.2017 07:00:00 - - - - - - -
13.12.2017 06:00:00 2,8 2,2 4 2 S 1008,9 -
13.12.2017 05:00:00 - - - - - - -
13.12.2017 04:00:00 - - - - - - -
13.12.2017 03:00:00 2,3 1,6 4 2 S 1009,5 -
13.12.2017 02:00:00 - - - - - - -
13.12.2017 01:00:00 - - - - - - -
13.12.2017 00:00:00 1,7 0,7 4 2 S 1011,2 -
12.12.2017 23:00:00 - - - - - - -
12.12.2017 22:00:00 - - - - - - -
12.12.2017 21:00:00 0,9 -0,2 7 4 SSE 1012,1 -
12.12.2017 20:00:00 - - - - - - -
12.12.2017 19:00:00 - - - - - - -
12.12.2017 18:00:00 0,6 -0,8 4 2 SSE 1013,3 -
12.12.2017 17:00:00 - - - - - - -
12.12.2017 16:00:00 - - - - - - -
12.12.2017 15:00:00 0,3 -1,8 7 4 SE 1014,1 4,0
12.12.2017 14:00:00 - - - - - - -
12.12.2017 13:00:00 - - - - - - -
12.12.2017 12:00:00 0,0 -2,8 7 4 S 1015,3 10
12.12.2017 11:00:00 - - - - - - -
12.12.2017 10:00:00 - - - - - - -
12.12.2017 09:00:00 -1,1 -3,0 4 2 S 1014,9 4,0
12.12.2017 08:00:00 - - - - - - -
12.12.2017 07:00:00 - - - - - - -
12.12.2017 06:00:00 -1,0 -2,9 4 2 WSW 1013,2 -
12.12.2017 05:00:00 - - - - - - -
12.12.2017 04:00:00 - - - - - - -
12.12.2017 03:00:00 -1,0 -2,9 4 2 WSW 1013,2 -
12.12.2017 02:00:00 - - - - - - -
12.12.2017 01:00:00 - - - - - - -
12.12.2017 00:00:00 0,2 -0,7 4 2 WSW 1010,2 -
11.12.2017 23:00:00 - - - - - - -
11.12.2017 22:00:00 - - - - - - -
11.12.2017 21:00:00 1,2 0,4 4 2 SE 1007,0 -
11.12.2017 20:00:00 - - - - - - -
11.12.2017 19:00:00 - - - - - - -
11.12.2017 18:00:00 1,5 0,3 7 4 SSE 1006,6 -
11.12.2017 17:00:00 - - - - - - -
11.12.2017 16:00:00 - - - - - - -
11.12.2017 15:00:00 1,2 0,3 4 2 SSE 1005,9 4,0
11.12.2017 14:00:00 - - - - - - -
11.12.2017 13:00:00 - - - - - - -
11.12.2017 12:00:00 1,7 0,5 7 4 SE 1006,1 4,0
11.12.2017 11:00:00 - - - - - - -
11.12.2017 10:00:00 - - - - - - -
11.12.2017 09:00:00 2,2 0,1 7 4 SE 1006,1 4,0
11.12.2017 08:00:00 - - - - - - -
11.12.2017 07:00:00 - - - - - - -
11.12.2017 06:00:00 2,1 0,7 7 4 SSE 1006,0 -
11.12.2017 05:00:00 - - - - - - -
11.12.2017 04:00:00 - - - - - - -
11.12.2017 03:00:00 1,6 1,3 7 4 SSE 1006,5 -
11.12.2017 02:00:00 - - - - - - -
11.12.2017 01:00:00 - - - - - - -
11.12.2017 00:00:00 1,2 0,7 7 4 SE 1007,3 -
10.12.2017 23:00:00 - - - - - - -
10.12.2017 22:00:00 - - - - - - -
10.12.2017 21:00:00 0,5 0,0 4 2 ESE 1008,1 -
10.12.2017 20:00:00 - - - - - - -
10.12.2017 19:00:00 - - - - - - -
10.12.2017 18:00:00 0,1 -0,3 7 4 SSE 1008,9 -
10.12.2017 17:00:00 - - - - - - -
10.12.2017 16:00:00 - - - - - - -
10.12.2017 15:00:00 0,0 -0,9 7 4 SSE 1010,2 4,0
10.12.2017 14:00:00 - - - - - - -
10.12.2017 13:00:00 - - - - - - -
10.12.2017 12:00:00 0,3 -1,2 7 4 SSE 1011,4 4,0
10.12.2017 11:00:00 - - - - - - -
10.12.2017 10:00:00 - - - - - - -
10.12.2017 09:00:00 0,6 -1,0 7 4 SSE 1011,7 4,0
10.12.2017 08:00:00 - - - - - - -
10.12.2017 07:00:00 - - - - - - -
10.12.2017 06:00:00 0,9 -1,2 11 6 SSE 1012,9 -
10.12.2017 05:00:00 - - - - - - -
10.12.2017 04:00:00 - - - - - - -
10.12.2017 03:00:00 0,8 -1,0 4 2 S 1013,8 -
10.12.2017 02:00:00 - - - - - - -
10.12.2017 01:00:00 - - - - - - -
10.12.2017 00:00:00 1,0 0,2 4 2 SSE 1013,7 -
09.12.2017 23:00:00 - - - - - - -
09.12.2017 22:00:00 - - - - - - -
09.12.2017 21:00:00 1,0 0,3 4 2 SE 1013,3 -
09.12.2017 20:00:00 - - - - - - -
09.12.2017 19:00:00 - - - - - - -
09.12.2017 18:00:00 0,8 -0,2 0 0 N 1013,3 -
09.12.2017 17:00:00 - - - - - - -
09.12.2017 16:00:00 - - - - - - -
09.12.2017 15:00:00 0,7 -0,4 0 0 N 1012,5 4,0
09.12.2017 14:00:00 - - - - - - -
09.12.2017 13:00:00 - - - - - - -
09.12.2017 12:00:00 0,1 -1,0 4 2 SSE 1012,0 4,0
09.12.2017 11:00:00 - - - - - - -
09.12.2017 10:00:00 - - - - - - -
09.12.2017 09:00:00 -1,2 -2,5 4 2 SSE 1011,7 4,0
09.12.2017 08:00:00 - - - - - - -
09.12.2017 07:00:00 - - - - - - -
09.12.2017 06:00:00 -2,3 -3,7 4 2 SSE 1011,2 -
09.12.2017 05:00:00 - - - - - - -
09.12.2017 04:00:00 - - - - - - -
09.12.2017 03:00:00 -3,3 -4,5 7 4 SSE 1011,8 -
09.12.2017 02:00:00 - - - - - - -
09.12.2017 01:00:00 - - - - - - -
09.12.2017 00:00:00 -4,0 -5,3 7 4 SSE 1012,1 -
08.12.2017 23:00:00 - - - - - - -
08.12.2017 22:00:00 - - - - - - -
08.12.2017 21:00:00 -4,6 -5,6 7 4 SSE 1012,5 -
08.12.2017 20:00:00 - - - - - - -
08.12.2017 19:00:00 - - - - - - -
08.12.2017 18:00:00 -3,8 -7,5 11 6 SSE 1012,8 -
08.12.2017 17:00:00 - - - - - - -
08.12.2017 16:00:00 - - - - - - -
08.12.2017 15:00:00 -3,6 -7,7 7 4 S 1013,6 10
08.12.2017 14:00:00 - - - - - - -
08.12.2017 13:00:00 - - - - - - -
08.12.2017 12:00:00 -3,9 -7,9 7 4 SSE 1014,5 10
08.12.2017 11:00:00 - - - - - - -
08.12.2017 10:00:00 - - - - - - -
08.12.2017 09:00:00 -4,3 -7,9 4 2 S 1014,6 10
08.12.2017 08:00:00 - - - - - - -
08.12.2017 07:00:00 - - - - - - -
08.12.2017 06:00:00 -4,9 -7,6 0 0 N 1014,4 -
08.12.2017 05:00:00 - - - - - - -
08.12.2017 04:00:00 - - - - - - -
08.12.2017 03:00:00 -4,9 -7,2 0 0 N 1014,4 -
08.12.2017 02:00:00 - - - - - - -
08.12.2017 01:00:00 - - - - - - -
08.12.2017 00:00:00 -4,8 -7,6 0 0 N 1013,5 -
07.12.2017 23:00:00 - - - - - - -
07.12.2017 22:00:00 - - - - - - -
07.12.2017 21:00:00 -4,7 -7,1 4 2 N 1012,6 -
07.12.2017 20:00:00 - - - - - - -
07.12.2017 19:00:00 - - - - - - -
07.12.2017 18:00:00 -4,3 -6,5 4 2 N 1011,1 -
07.12.2017 17:00:00 - - - - - - -
07.12.2017 16:00:00 - - - - - - -

tt = temperature
td = dewpoint
ff = wind speed
dd = wind direction
ppp = reduced air pressure
vv = visibility

Next stations